User: anonymous   Login
Location: Chena
(64.8152°N, 147.9227°W)
Time: 13:27:11
(UTC+00:00)
Language:

NOAA 18 - Orbit

View from above orbital plane
View from above orbital plane
View from above satellite
View from above satellite

Ground track
Ground track

The orbit data is extracted from the following two-line orbital elements,

1 28654U 05018A   21109.86933418  .00000074  00000-0  64561-4 0  9991
2 28654  98.9987 174.4881 0015317  88.6766 271.6160 14.12598791820176
Epoch (UTC): 19 April 2021 20:51:50
Eccentricity: 0.0015317
inclination: 98.9987°
perigee height: 839 km
apogee height: 861 km
right ascension of ascending node: 174.4881°
argument of perigee: 88.6766°
revolutions per day: 14.12598791
mean anomaly at epoch: 271.6160°
orbit number at epoch: 82017

The dashed part of the orbit path shows where the satellite is in the earth's shadow,  

DLR